Weather Roundup
Issued by NWS Corpus Christi, TX

Home | Current Version | Previous Version | Text Only | Print | Product List | Glossary On
Versions: 1 2 3 4 5 6 7 8 9 10 11 12 13 14 15 16 17 18 19 20 21 22 23 24 25 26 27 28 29 30 31 32 33 34 35 36 37 38 39 40 41 42 43 44 45 46 47 48 49 50
000
ASUS44 KCRP 291210
HRRCRP

SOUTH TEXAS REGIONAL WEATHER ROUNDUP
NATIONAL WEATHER SERVICE CORPUS CHRISTI TX
700 AM CDT FRI MAY 29 2015


TXZ229>244-291300-
...CORPUS CHRISTI AREA OBSERVATIONS...

CITY           SKY/WX    TMP DP  RH WIND       PRES   REMARKS
CORPUS CHRISTI LGT RAIN  70  63  78 NE17      30.02S
NAS CORPUS CHR CLOUDY    71  64  78 N20G30    30.02S
ROCKPORT       RAIN      69  64  84 N10       30.02S
KINGSVILLE NAS CLOUDY    68  67  96 N9        30.04R
ALICE          RAIN      68  65  90 N7        30.04R
FALFURRIAS     CLOUDY    65  64  94 N10       30.04R
$$

...VICTORIA AREA OBSERVATIONS...

CITY           SKY/WX    TMP DP  RH WIND       PRES   REMARKS
VICTORIA       CLOUDY    67  66  97 SE6       29.99S
BEEVILLE       RAIN      67  67 100 N3        30.03R
PLEASANTON     RAIN      67  63  86 S8        29.89R
SAN ANTONIO    CLOUDY    65  62  90 W7        29.89R
$$

...LAREDO AREA OBSERVATIONS...

CITY           SKY/WX    TMP DP  RH WIND       PRES   REMARKS
LAREDO         CLOUDY    65  63  93 E10       30.00S
COTULLA        CLOUDY    65  63  93 S7        29.93R
DEL RIO        CLEAR     64  62  93 S8        29.94F
MCALLEN        CLOUDY    82  76  81 N7        29.98R
HEBBRONVILLE     N/A     64  63  94 E14G22    30.00F
$$

...OTHER TEXAS OBSERVATIONS...

CITY           SKY/WX    TMP DP  RH WIND       PRES   REMARKS
BROWNSVILLE    MOCLDY    79  76  90 SE5       29.95R
HOUSTON        LGT RAIN  73  68  84 SW5G17    30.00R
COL. STATION   CLOUDY    67  65  93 S10       29.92F
AUSTIN         CLOUDY    64  64 100 S7        29.87R
WACO           CLOUDY    65  64  97 W8        29.90F
FORT WORTH     CLOUDY    66  66 100 CALM      29.84F
WICHITA FALLS  CLOUDY    64  62  93 N3        29.94R
LUBBOCK        CLOUDY    56  55  97 SW6       30.00R
EL PASO        PTCLDY    63  22  20 SE7       29.99R
$$

...MARINE OBSERVATIONS...

STATION/POSITION TIME  SKY/WX   TEMP    WIND        PRES    VSBY  WAVE   SWELL
                                AIR SEA DIR/SP/G                  HT/PER HT/PER
                 (UTC)          (F)     (DEG/KT/KT) (MB)    (MI)  (FT/S) (FT/S)
PORT ARANSAS     1200            72 81  360/ 15/ 17 1016.7F
BUOY 90 E PORT A 1150            81 80  190/  8/ 10 1015.8R         4/ 5   3/ 5
BUOY 45 SE BAFFI 1150            81 81  150/  8/ 10 1014.7R         5/ 6   3/ 6
BUOY 200 E PT IS 1150            81 81  150/ 12/ 14 1015.1R         3/ 5   2/ 6
BUOY 15 E GALVES 1150            80 80  180/ 12/ 14 1015.2R         3/ 5   2/ 6
$$



USA.gov is the U.S. government's official web portal to all federal, state and local government web resources and services.